Temp
-4 -4 -4 -4 -4 -4 -5 -5 -5 -4 -5 -5 -4 -4 -4 -4 -4 -5 -5 -5 -5 -5 -5 -5 -6 -6 -7 -7 -7 -8 -8 -9 -9 -9 -9 -10 -9 -9 -9 -9 -8 -8 -8 -8 -8 -9 -8 -8 -9
-4 -3 -4 -4 -4 -5 -4 -4 -4 -4 -5 -4 -4 -4 -4 -4 -5 -5 -5 -5 -5 -5 -5 -6 -6 -7 -7 -7 -7 -8 -9 -9 -9 -9 -9 -9 -9 -9 -9 -9 -8 -9 -9 -8 -7 -7 -8 -8 -8
-4 -4 -5 -4 -4 -4 -4 -4 -4 -4 -4 -4 -4 -4 -4 -5 -5 -5 -5 -5 -5 -6 -6 -6 -6 -7 -7 -7 -8 -8 -8 -8 -9 -9 -9 -9 -9 -9 -9 -9 -9 -9 -8 -8 -8 -8 -8 -8 -8
-3 -4 -4 -4 -4 -5 -5 -4 -5 -4 -5 -5 -4 -4 -5 -5 -5 -5 -5 -5 -5 -6 -6 -6 -6 -7 -7 -7 -8 -8 -8 -8 -8 -8 -8 -7 -8 -9 -9 -8 -9 -9 -8 -8 -8 -8 -8 -8 -7
-4 -4 -4 -4 -4 -3 -5 -5 -5 -5 -5 -5 -5 -5 -5 -6 -6 -6 -6 -6 -6 -6 -6 -6 -7 -7 -7 -7 -7 -8 -8 -8 -8 -8 -8 -7 -8 -8 -8 -9 -9 -9 -8 -8 -7 -8 -8 -8 -7
-5 -5 -4 -4 -4 -4 -4 -4 -4 -5 -5 -5 -5 -5 -5 -6 -6 -6 -6 -6 -6 -6 -6 -6 -7 -7 -7 -7 -7 -7 -8 -8 -8 -8 -8 -8 -8 -8 -8 -9 -9 -9 -9 -8 -8 -8 -8 -8 -7
-5 -5 -5 -5 -5 -4 -4 -4 -4 -5 -5 -6 -5 -5 -5 -5 -6 -6 -6 -6 -6 -6 -6 -6 -7 -7 -7 -7 -7 -7 -7 -8 -8 -8 -8 -9 -9 -9 -9 -9 -9 -9 -9 -9 -8 -8 -8 -8 -8
-5 -5 -5 -5 -5 -5 -5 -5 -4 -4 -5 -6 -6 -5 -5 -5 -5 -6 -6 -6 -6 -6 -6 -6 -6 -7 -7 -7 -7 -8 -8 -8 -8 -8 -8 -8 -8 -9 -9 -9 -9 -9 -10 -9 -8 -8 -8 -7 -7
-5 -4 -5 -5 -5 -5 -5 -5 -5 -5 -5 -5 -5 -5 -5 -6 -5 -5 -5 -6 -6 -6 -6 -6 -6 -6 -6 -7 -7 -7 -8 -8 -8 -8 -8 -8 -8 -8 -8 -9 -9 -9 -9 -8 -8 -8 -7 -7 -7
-5 -5 -6 -6 -6 -5 -6 -5 -5 -5 -5 -5 -5 -4 -5 -6 -5 -5 -5 -5 -5 -6 -6 -6 -6 -6 -7 -7 -7 -7 -8 -8 -8 -7 -8 -8 -8 -8 -8 -8 -8 -9 -8 -8 -8 -7 -7 -8 -8
-5 -6 -6 -6 -7 -6 -6 -6 -6 -6 -5 -5 -5 -5 -5 -6 -6 -5 -5 -5 -5 -6 -6 -7 -6 -6 -7 -7 -7 -7 -8 -8 -8 -8 -8 -7 -8 -8 -8 -8 -8 -8 -8 -8 -7 -7 -7 -7 -7
-5 -5 -5 -6 -6 -6 -5 -5 -6 -5 -5 -5 -5 -5 -5 -5 -6 -5 -5 -5 -5 -6 -6 -7 -6 -6 -7 -7 -7 -7 -7 -7 -8 -7 -7 -7 -7 -8 -8 -8 -8 -8 -8 -7 -7 -7 -7 -7 -7
-5 -5 -5 -6 -5 -6 -6 -5 -6 -6 -5 -5 -5 -5 -5 -5 -6 -6 -6 -6 -6 -6 -5 -7 -6 -6 -7 -7 -7 -7 -7 -7 -8 -7 -7 -7 -7 -7 -7 -7 -7 -7 -7 -7 -7 -7 -7 -7 -7
-6 -5 -6 -5 -5 -6 -6 -6 -6 -5 -5 -5 -5 -5 -6 -6 -6 -6 -6 -6 -6 -5 -5 -6 -5 -6 -7 -7 -7 -7 -7 -7 -7 -7 -7 -7 -7 -7 -8 -7 -7 -7 -7 -7 -7 -7 -7 -7 -7
-7 -6 -6 -6 -5 -5 -5 -5 -5 -5 -6 -5 -5 -5 -5 -6 -6 -6 -6 -6 -6 -5 -5 -5 -5 -6 -7 -6 -6 -7 -7 -7 -7 -7 -7 -7 -7 -7 -7 -7 -8 -7 -7 -7 -7 -6 -6 -7 -7
-8 -6 -6 -6 -6 -6 -6 -4 -4 -5 -6 -6 -6 -6 -5 -5 -6 -6 -7 -6 -6 -5 -5 -5 -4 -6 -6 -6 -6 -7 -7 -7 -7 -7 -7 -7 -7 -7 -7 -7 -7 -7 -7 -7 -7 -7 -7 -7 -7
-7 -7 -7 -6 -6 -6 -6 -5 -5 -5 -5 -6 -6 -6 -5 -5 -6 -6 -6 -6 -5 -5 -5 -4 -5 -5 -5 -5 -6 -6 -6 -7 -7 -7 -7 -7 -7 -7 -7 -7 -7 -7 -7 -7 -7 -7 -7 -7 -7
-8 -7 -6 -7 -7 -6 -6 -6 -6 -5 -6 -6 -6 -6 -6 -5 -5 -5 -5 -5 -5 -5 -5 -5 -5 -5 -5 -5 -5 -6 -6 -6 -7 -7 -7 -6 -6 -7 -7 -7 -7 -7 -7 -7 -7 -7 -7 -7 -7
-9 -8 -8 -7 -6 -6 -6 -6 -6 -6 -6 -5 -5 -5 -6 -7 -6 -5 -5 -5 -5 -5 -5 -5 -5 -4 -5 -5 -5 -5 -6 -6 -7 -7 -7 -6 -7 -7 -7 -7 -7 -7 -7 -7 -7 -7 -7 -7 -7
-9 -8 -8 -8 -7 -7 -6 -6 -7 -7 -7 -6 -6 -6 -6 -5 -6 -6 -4 -5 -5 -4 -4 -5 -5 -5 -4 -4 -5 -5 -6 -6 -7 -7 -7 -7 -7 -7 -7 -8 -8 -8 -7 -7 -7 -7 -7 -7 -7
-8 -8 -9 -9 -8 -7 -7 -7 -6 -7 -7 -7 -6 -6 -6 -6 -6 -5 -5 -5 -4 -4 -5 -5 -5 -5 -4 -4 -5 -5 -5 -6 -7 -7 -7 -7 -7 -7 -8 -8 -8 -8 -8 -7 -7 -7 -7 -7 -6
-8 -8 -9 -9 -8 -8 -7 -7 -6 -7 -6 -6 -6 -7 -7 -6 -6 -6 -5 -4 -5 -4 -4 -4 -4 -4 -4 -4 -4 -5 -5 -6 -6 -7 -7 -7 -7 -8 -8 -9 -9 -9 -9 -8 -8 -7 -7 -7 -7
-8 -9 -9 -9 -9 -7 -7 -6 -6 -6 -6 -6 -7 -7 -7 -6 -6 -6 -5 -5 -5 -4 -4 -4 -4 -4 -4 -4 -4 -5 -5 -6 -6 -7 -7 -8 -8 -8 -8 -8 -9 -9 -9 -8 -8 -8 -7 -7 -7
-10 -10 -10 -9 -9 -7 -7 -6 -6 -6 -6 -7 -7 -7 -7 -6 -6 -6 -5 -5 -4 -4 -4 -4 -4 -4 -4 -4 -4 -5 -5 -5 -6 -7 -8 -8 -8 -8 -8 -8 -9 -9 -9 -9 -8 -8 -8 -8 -7
-10 -9 -9 -9 -8 -5 -7 -6 -6 -6 -7 -6 -6 -7 -6 -5 -6 -6 -5 -5 -5 -4 -4 -4 -4 -4 -4 -4 -4 -4 -5 -5 -6 -6 -8 -8 -8 -9 -9 -8 -9 -9 -9 -9 -8 -8 -8 -8 -8
-10 -9 -9 -9 -8 -7 -8 -6 -6 -7 -6 -6 -6 -6 -6 -5 -5 -6 -5 -5 -5 -5 -4 -4 -4 -4 -4 -4 -4 -4 -4 -5 -5 -6 -7 -8 -8 -8 -8 -9 -8 -8 -8 -8 -8 -8 -8 -8 -8
-10 -9 -9 -9 -9 -7 -7 -6 -8 -7 -7 -7 -6 -7 -6 -6 -6 -5 -6 -5 -4 -4 -4 -4 -4 -4 -4 -4 -4 -4 -4 -5 -5 -6 -6 -7 -7 -8 -8 -9 -8 -8 -8 -8 -8 -8 -8 -8 -8
-9 -10 -10 -9 -9 -7 -7 -6 -7 -7 -7 -6 -7 -7 -6 -6 -5 -5 -5 -5 -4 -4 -4 -4 -4 -4 -4 -4 -4 -4 -4 -4 -5 -5 -6 -7 -7 -8 -8 -9 -8 -8 -8 -8 -8 -8 -8 -8 -8
-9 -9 -9 -9 -9 -8 -7 -6 -6 -7 -7 -7 -7 -6 -7 -6 -5 -5 -5 -5 -4 -4 -4 -4 -3 -3 -3 -3 -3 -4 -4 -4 -4 -5 -5 -6 -6 -7 -8 -8 -8 -8 -8 -8 -8 -8 -8 -8 -9
-10 -9 -9 -9 -8 -8 -7 -5 -7 -8 -7 -7 -7 -7 -7 -7 -7 -5 -5 -5 -5 -4 -4 -4 -3 -3 -3 -4 -3 -4 -4 -4 -4 -5 -5 -5 -6 -7 -7 -8 -8 -8 -8 -8 -8 -8 -8 -8 -9
Height
5873 5872 5873 5873 5876 5872 5876 5881 5882 5885 5889 5890 5891 5892 5894 5893 5893 5896 5896 5897 5897 5897 5897 5896 5896 5894 5893 5891 5890 5889 5888 5887 5885 5883 5881 5880 5880 5880 5883 5883 5884 5883 5881 5879 5877 5876 5876 5876 5877
5872 5871 5873 5873 5872 5876 5880 5882 5883 5886 5888 5889 5893 5894 5893 5894 5894 5896 5898 5898 5898 5899 5898 5898 5897 5894 5893 5891 5890 5889 5888 5887 5885 5883 5881 5880 5881 5881 5882 5883 5885 5883 5881 5878 5875 5874 5874 5876 5876
5874 5871 5871 5875 5876 5879 5882 5885 5885 5888 5889 5890 5894 5894 5895 5895 5896 5898 5899 5900 5899 5900 5901 5900 5898 5896 5894 5893 5892 5890 5889 5887 5886 5885 5883 5881 5881 5882 5883 5884 5885 5885 5882 5879 5877 5876 5876 5875 5875
5875 5873 5875 5878 5879 5882 5885 5886 5888 5890 5890 5892 5896 5896 5895 5897 5897 5899 5901 5901 5902 5902 5902 5901 5900 5898 5896 5895 5894 5892 5890 5890 5888 5888 5885 5883 5883 5883 5884 5885 5886 5886 5885 5882 5880 5878 5876 5875 5874
5877 5877 5877 5879 5879 5882 5884 5886 5887 5889 5892 5893 5895 5896 5896 5896 5898 5900 5902 5903 5904 5904 5904 5902 5902 5900 5897 5897 5896 5894 5893 5891 5890 5890 5889 5887 5885 5886 5887 5888 5888 5887 5887 5885 5883 5880 5878 5875 5874
5876 5877 5879 5881 5882 5884 5885 5887 5890 5890 5892 5893 5895 5896 5897 5898 5899 5901 5903 5904 5905 5905 5905 5904 5903 5901 5899 5899 5898 5897 5895 5893 5892 5893 5891 5891 5890 5890 5891 5891 5889 5888 5887 5888 5886 5884 5881 5877 5875
5880 5880 5881 5882 5883 5887 5888 5889 5892 5892 5893 5894 5896 5897 5898 5898 5901 5903 5904 5905 5906 5907 5906 5906 5904 5902 5901 5901 5900 5899 5897 5896 5895 5894 5893 5894 5895 5893 5893 5892 5891 5888 5888 5888 5889 5889 5887 5882 5879
5883 5883 5882 5884 5885 5887 5889 5891 5894 5893 5895 5895 5896 5898 5901 5901 5902 5905 5906 5906 5907 5908 5908 5908 5906 5904 5903 5904 5902 5901 5900 5898 5897 5897 5896 5896 5896 5896 5895 5895 5893 5888 5887 5892 5893 5893 5892 5889 5887
5885 5883 5881 5882 5884 5886 5889 5892 5894 5895 5895 5896 5897 5898 5901 5902 5905 5906 5907 5907 5908 5909 5909 5909 5907 5906 5905 5906 5904 5903 5903 5901 5901 5900 5899 5899 5900 5899 5898 5899 5898 5893 5895 5898 5899 5898 5897 5895 5895
5886 5884 5884 5883 5885 5887 5890 5893 5894 5896 5896 5897 5898 5899 5901 5903 5906 5908 5909 5909 5909 5909 5910 5910 5909 5909 5908 5908 5907 5906 5905 5904 5904 5904 5904 5904 5904 5903 5903 5904 5902 5901 5903 5901 5902 5903 5901 5900 5899
5887 5886 5887 5886 5887 5889 5892 5894 5896 5897 5897 5897 5898 5901 5903 5903 5906 5908 5910 5910 5911 5910 5911 5911 5911 5911 5910 5910 5909 5908 5907 5906 5907 5907 5908 5908 5907 5907 5908 5908 5907 5907 5906 5906 5905 5905 5904 5903 5903
5891 5887 5887 5890 5888 5890 5892 5894 5895 5896 5897 5896 5898 5900 5903 5904 5906 5909 5911 5911 5911 5910 5911 5913 5912 5914 5912 5911 5910 5911 5909 5909 5910 5911 5911 5911 5911 5911 5912 5912 5912 5912 5911 5910 5909 5909 5908 5907 5907
5889 5891 5888 5890 5890 5890 5892 5893 5894 5896 5896 5896 5898 5901 5903 5904 5906 5908 5911 5912 5912 5912 5913 5913 5914 5915 5915 5914 5912 5912 5912 5911 5912 5914 5914 5914 5914 5914 5914 5915 5915 5916 5915 5914 5914 5913 5912 5910 5909
5890 5891 5889 5891 5892 5892 5894 5894 5894 5895 5896 5896 5896 5899 5901 5903 5906 5907 5910 5910 5911 5913 5914 5914 5916 5916 5916 5916 5914 5914 5914 5914 5915 5917 5917 5917 5917 5917 5918 5918 5918 5918 5918 5918 5917 5916 5915 5915 5914
5887 5891 5892 5889 5893 5893 5895 5895 5895 5893 5894 5894 5896 5898 5900 5902 5904 5907 5909 5909 5912 5913 5914 5915 5917 5918 5918 5918 5916 5916 5915 5917 5918 5918 5919 5920 5920 5921 5921 5921 5921 5921 5921 5920 5920 5920 5919 5919 5918
5885 5887 5892 5892 5890 5894 5895 5896 5894 5893 5893 5894 5897 5897 5898 5900 5902 5906 5909 5909 5912 5912 5915 5917 5918 5919 5920 5920 5919 5918 5918 5919 5920 5921 5922 5924 5925 5925 5925 5924 5924 5923 5924 5923 5923 5922 5922 5921 5920
5883 5885 5887 5891 5892 5893 5895 5894 5896 5894 5894 5895 5896 5898 5900 5900 5901 5904 5908 5908 5911 5912 5915 5917 5918 5920 5921 5921 5921 5921 5921 5921 5923 5924 5926 5928 5927 5927 5928 5928 5927 5927 5926 5926 5925 5925 5923 5922 5922
5878 5883 5884 5889 5890 5891 5892 5893 5893 5894 5895 5896 5896 5897 5899 5902 5901 5902 5906 5908 5910 5911 5914 5916 5918 5920 5923 5923 5922 5923 5923 5924 5925 5927 5928 5929 5929 5928 5929 5929 5929 5929 5928 5928 5927 5927 5926 5925 5923
5876 5878 5882 5885 5888 5890 5890 5891 5894 5894 5896 5896 5898 5900 5899 5899 5902 5903 5905 5909 5910 5911 5913 5915 5917 5920 5923 5924 5924 5924 5925 5926 5927 5928 5929 5929 5929 5929 5929 5929 5930 5930 5930 5929 5929 5928 5928 5927 5925
5872 5874 5878 5882 5884 5885 5887 5891 5893 5894 5895 5895 5897 5898 5900 5900 5899 5900 5904 5908 5911 5911 5913 5915 5918 5921 5923 5924 5924 5925 5925 5927 5929 5930 5931 5932 5932 5931 5930 5930 5929 5930 5930 5930 5930 5929 5928 5927 5925
5868 5871 5875 5879 5879 5882 5885 5889 5891 5892 5893 5894 5895 5897 5898 5899 5899 5899 5901 5906 5910 5912 5914 5916 5918 5922 5924 5924 5924 5925 5925 5928 5930 5932 5934 5934 5934 5934 5933 5933 5933 5933 5932 5932 5931 5930 5928 5926 5924
5863 5869 5871 5875 5875 5879 5881 5886 5887 5889 5890 5892 5893 5894 5896 5897 5897 5897 5900 5904 5907 5911 5913 5916 5918 5922 5924 5924 5924 5926 5926 5929 5931 5933 5935 5936 5936 5936 5935 5935 5935 5935 5934 5933 5931 5929 5929 5928 5926
5861 5864 5866 5868 5869 5873 5877 5882 5888 5887 5890 5891 5893 5894 5894 5894 5895 5895 5898 5901 5904 5909 5912 5914 5917 5922 5923 5924 5924 5926 5927 5929 5932 5933 5935 5937 5937 5937 5937 5937 5937 5937 5936 5935 5932 5930 5927 5924 5921
5854 5856 5859 5862 5864 5866 5877 5877 5883 5887 5889 5889 5890 5891 5890 5891 5893 5893 5894 5898 5902 5907 5911 5914 5917 5920 5922 5923 5924 5926 5928 5929 5931 5933 5936 5938 5939 5938 5938 5939 5939 5939 5938 5937 5934 5932 5930 5926 5922
5842 5848 5851 5854 5857 5862 5872 5870 5881 5885 5885 5887 5889 5888 5887 5887 5888 5891 5893 5898 5902 5906 5912 5914 5917 5919 5921 5923 5924 5926 5928 5929 5932 5933 5936 5939 5940 5939 5938 5939 5941 5940 5940 5939 5937 5935 5932 5928 5924
5838 5843 5844 5846 5850 5859 5864 5861 5877 5879 5883 5886 5886 5887 5888 5889 5888 5889 5891 5895 5899 5903 5908 5913 5915 5918 5919 5922 5924 5926 5928 5929 5932 5934 5936 5939 5940 5939 5939 5940 5941 5940 5940 5940 5938 5936 5933 5930 5926
5828 5832 5842 5843 5846 5853 5856 5865 5872 5876 5880 5882 5884 5885 5885 5886 5888 5889 5890 5894 5897 5901 5906 5910 5913 5916 5919 5921 5923 5926 5928 5930 5932 5934 5935 5938 5939 5939 5939 5941 5942 5941 5941 5940 5938 5936 5934 5932 5928
5817 5828 5831 5831 5837 5842 5849 5860 5866 5871 5874 5878 5879 5881 5883 5882 5884 5887 5889 5892 5896 5899 5902 5906 5909 5913 5916 5919 5923 5926 5927 5929 5932 5933 5934 5937 5939 5938 5939 5941 5941 5941 5940 5940 5938 5937 5935 5932 5929
5811 5814 5819 5824 5829 5835 5844 5853 5863 5868 5872 5874 5876 5877 5878 5878 5878 5882 5885 5888 5892 5895 5899 5904 5908 5911 5914 5918 5921 5924 5927 5928 5931 5932 5933 5935 5937 5938 5939 5940 5941 5940 5940 5939 5938 5936 5934 5932 5929
5801 5808 5815 5817 5823 5827 5834 5844 5856 5864 5867 5871 5873 5875 5876 5876 5877 5878 5880 5883 5887 5892 5896 5902 5906 5910 5913 5915 5918 5922 5925 5927 5929 5931 5933 5934 5935 5936 5938 5938 5939 5939 5938 5938 5937 5935 5934 5931 5927
Wind_Speed
5 3 6 4 1 21 19 20 19 21 19 16 13 13 13 12 10 8 8 9 6 5 7 8 11 12 13 14 13 12 12 11 10 9 9 7 7 5 5 9 11 15 16 14 8 4 4 3 2
11 10 5 2 18 16 22 22 25 23 19 19 16 15 14 10 9 8 8 7 4 5 7 12 11 12 13 13 12 13 13 12 11 10 9 6 8 9 4 9 11 16 17 13 9 8 6 5 5
12 11 11 21 18 23 22 18 23 23 20 20 17 15 12 10 9 8 7 5 4 5 9 11 10 11 12 11 12 14 15 13 13 13 12 8 7 9 6 7 14 18 18 18 14 14 10 4 3
9 11 16 17 19 20 28 25 21 15 16 18 16 14 11 9 8 8 5 5 4 6 9 8 9 10 10 11 15 15 14 13 15 18 18 15 11 9 14 19 18 18 18 20 22 19 12 9 8
10 9 21 17 19 22 28 18 21 19 18 16 15 12 10 8 8 7 5 5 5 6 7 6 7 7 9 11 13 17 16 14 13 17 18 19 17 16 15 18 19 17 20 24 22 24 22 15 9
9 8 12 24 17 20 21 17 20 22 19 16 13 9 10 8 9 8 6 5 5 6 5 6 5 7 9 10 15 16 13 13 14 15 15 18 17 16 19 18 17 16 18 28 33 29 27 24 20
12 12 18 21 20 20 19 17 19 20 17 16 10 8 8 10 10 9 6 6 6 5 5 5 4 8 10 12 13 16 14 14 16 11 14 15 16 16 17 17 17 13 15 33 31 28 30 32 31
10 9 7 14 18 18 17 14 12 18 16 14 12 8 7 5 11 10 7 7 5 4 5 6 6 11 11 14 13 14 13 15 13 13 16 16 18 19 21 21 17 9 35 33 24 29 29 31 36
8 11 5 11 18 21 19 15 15 15 13 11 11 6 10 8 11 11 8 8 6 5 6 7 9 11 13 13 15 12 13 14 15 17 18 19 21 23 22 23 21 32 32 26 26 26 27 28 26
10 14 8 16 19 21 18 14 14 12 12 13 12 12 14 12 10 9 6 8 7 6 5 8 10 11 12 13 14 12 15 15 15 19 19 20 23 27 27 27 26 22 24 23 23 23 25 24 24
8 14 10 17 20 15 13 13 10 11 11 11 12 10 13 14 12 10 7 8 7 6 4 6 10 11 10 12 12 13 17 15 18 19 18 22 26 27 26 24 25 22 20 19 20 21 24 25 24
7 14 17 18 15 17 15 13 12 11 10 13 12 11 12 14 13 11 8 7 7 6 4 5 9 10 7 10 13 13 19 19 20 20 21 22 23 24 23 22 22 19 18 17 18 20 22 25 25
4 12 17 15 17 15 17 22 16 12 13 14 15 13 15 15 12 11 9 8 7 5 5 7 9 10 8 11 13 14 18 17 20 19 19 18 19 20 21 20 21 20 20 18 18 18 19 20 22
7 12 20 16 15 16 15 17 17 15 13 12 11 13 14 15 15 16 14 11 8 5 6 9 11 10 8 12 14 15 18 18 19 19 18 16 17 19 18 21 22 22 22 20 20 20 18 18 18
7 11 17 26 17 18 16 15 18 18 15 13 11 10 11 13 17 16 15 12 9 8 7 11 13 13 10 13 15 16 18 18 17 17 17 18 19 17 19 22 23 22 22 21 20 18 17 18 19
10 12 14 19 22 17 15 16 17 17 16 14 10 10 13 14 16 18 18 14 13 11 9 12 16 14 12 16 16 16 17 18 16 16 18 20 21 20 20 20 19 19 20 22 20 19 18 18 17
15 15 15 18 14 18 15 12 8 12 12 13 12 9 9 13 15 18 19 19 15 15 14 13 15 13 13 17 19 17 16 17 16 14 16 17 19 21 19 17 17 17 16 17 18 16 16 15 15
24 17 19 17 16 21 17 13 12 11 11 10 11 12 9 8 14 17 18 20 18 16 15 13 13 13 14 16 19 18 18 16 16 13 13 13 15 17 17 18 19 18 17 17 15 14 13 11 12
28 24 20 20 20 23 21 15 11 7 5 6 8 5 8 9 10 13 17 20 20 19 17 13 12 12 14 17 19 19 19 17 15 13 12 11 12 13 15 16 17 18 18 17 16 14 14 13 13
31 28 20 23 23 23 20 14 13 7 6 6 5 5 5 8 10 14 18 24 21 23 19 15 13 12 13 15 18 19 21 18 15 14 12 10 9 11 15 17 19 19 18 17 16 15 14 14 12
34 31 23 21 26 26 23 13 15 17 11 8 5 3 2 4 10 14 20 27 24 22 21 19 16 14 14 15 17 17 21 18 16 14 12 12 12 13 17 18 17 16 15 15 16 16 17 17 17
39 34 30 26 30 25 26 19 20 24 17 14 10 4 1 3 6 13 22 29 26 26 24 20 17 15 14 13 16 16 19 18 16 14 13 13 13 14 16 16 16 16 17 18 21 22 22 20 21
36 37 34 32 34 33 25 23 22 25 21 13 7 2 1 3 4 12 24 30 30 29 27 23 19 17 14 13 16 15 18 18 15 15 13 13 13 13 14 14 14 15 17 19 22 25 26 27 28
38 40 39 38 37 37 22 26 25 23 21 18 13 11 10 7 6 12 24 34 32 31 30 25 22 19 15 13 14 15 15 15 16 16 15 14 12 12 13 12 12 13 16 19 22 24 25 26 27
45 43 44 44 43 36 21 30 23 26 21 19 14 14 15 13 10 11 22 29 30 30 29 26 24 20 17 14 12 15 15 13 13 15 14 13 9 11 10 10 10 12 14 16 19 22 23 22 23
45 45 49 49 48 38 29 35 25 29 24 20 15 11 11 11 9 11 22 28 32 30 31 29 26 23 19 16 14 13 14 13 13 13 12 10 8 8 8 7 8 11 13 15 16 18 20 20 21
50 49 44 48 49 42 39 25 37 26 27 24 13 10 12 12 13 11 15 27 35 32 32 32 28 25 22 19 16 13 13 12 13 12 11 9 7 6 5 4 5 7 10 13 15 15 15 17 20
53 49 49 52 50 47 41 32 33 31 32 25 13 9 13 16 19 16 15 21 33 36 35 35 33 29 25 22 18 15 15 13 12 11 11 10 8 6 4 1 3 4 7 11 12 14 16 18 19
50 55 55 53 51 48 41 38 34 24 21 20 15 10 4 4 14 18 15 18 30 36 37 36 34 31 27 23 22 19 16 15 13 11 10 9 8 7 5 2 2 3 4 7 10 12 17 19 19
50 50 53 56 53 51 47 47 32 27 25 24 17 11 5 5 6 22 20 22 24 34 37 36 34 30 27 25 23 21 19 16 15 12 11 10 8 9 7 4 2 2 1 4 8 13 18 20 22
Wind_Direction
351 290 344 274 13 122 128 130 123 122 114 111 132 126 119 113 112 106 85 62 51 40 39 42 42 42 38 33 31 30 29 33 39 26 8 352 356 338 30 37 25 15 27 24 14 80 136 163 108
353 326 328 7 120 111 127 128 129 131 129 129 113 112 119 118 111 95 81 83 53 39 29 40 38 38 36 36 31 30 33 42 43 30 18 28 44 72 72 32 27 35 36 33 48 107 129 160 179
351 348 100 110 118 117 125 126 124 124 116 127 116 124 127 121 111 101 97 87 63 49 34 38 33 37 40 42 40 35 41 54 57 49 37 38 68 71 36 11 54 59 50 45 72 79 80 77 105
12 100 107 127 124 125 125 117 126 134 127 129 127 140 134 118 115 105 111 97 64 61 49 39 31 35 47 53 49 49 59 66 57 50 49 53 74 70 70 73 73 67 60 55 49 63 81 95 110
113 110 121 126 128 137 153 134 128 127 137 135 138 137 131 136 121 123 111 101 69 56 52 41 33 38 63 64 57 57 57 61 48 55 51 53 70 77 69 69 72 68 67 68 67 68 68 72 91
79 120 154 139 136 143 146 144 136 130 134 137 144 155 128 130 141 135 130 113 78 66 36 49 36 64 78 75 64 58 51 61 64 63 49 54 59 61 63 62 66 68 80 84 84 73 71 65 59
45 133 151 134 144 150 145 131 138 144 149 154 153 150 117 138 144 137 133 108 87 65 52 53 66 85 80 72 66 61 58 68 61 65 48 65 59 61 60 73 67 72 88 105 90 77 71 74 73
359 14 165 161 155 157 140 132 132 147 142 156 169 174 89 112 138 136 135 109 103 94 72 70 93 90 81 75 67 64 66 72 65 59 60 63 73 80 77 81 72 67 91 110 88 76 73 73 75
27 24 107 142 163 140 140 137 136 135 139 155 169 168 135 125 142 134 133 118 122 112 87 86 104 97 85 79 75 69 78 67 62 65 65 67 78 78 84 82 79 75 73 84 76 77 75 74 73
71 68 76 133 157 138 138 145 145 144 143 149 153 161 145 143 138 127 128 118 116 117 89 97 117 102 95 91 73 59 78 72 70 74 74 76 82 83 84 88 85 80 82 71 76 74 75 73 75
95 89 90 124 123 133 149 154 146 155 146 148 156 169 158 160 146 153 138 128 113 105 101 103 124 108 104 89 64 66 89 81 86 86 81 81 83 83 87 85 81 78 75 71 70 70 72 71 71
117 121 134 136 142 146 152 159 148 156 171 157 155 166 160 162 154 168 147 144 110 108 127 120 124 118 99 78 72 89 93 91 90 84 88 86 86 87 87 85 83 87 77 68 68 69 66 72 75
182 129 140 151 162 149 141 149 147 149 160 160 161 170 167 166 169 168 168 154 114 118 125 132 128 123 115 94 80 93 101 92 88 89 98 94 88 86 84 80 80 81 82 80 77 68 69 70 80
214 180 147 162 150 139 148 154 144 144 150 150 151 181 190 189 185 179 176 151 130 146 136 135 132 130 126 97 95 101 96 91 95 100 100 98 94 86 87 89 85 80 79 78 74 71 67 69 76
201 204 159 148 148 145 153 160 157 139 133 128 140 163 169 189 193 191 177 152 148 157 157 137 139 133 135 102 100 102 96 96 104 96 93 99 96 94 94 89 83 79 77 80 83 82 81 76 79
218 215 179 157 154 167 161 175 164 144 134 129 137 148 166 185 191 189 181 173 168 159 164 154 136 136 131 110 104 100 101 101 108 100 95 102 106 99 90 83 79 80 83 82 81 81 80 71 69
217 215 223 199 175 177 166 150 160 155 145 138 134 146 168 176 188 194 189 175 172 165 165 162 138 134 125 115 107 102 103 104 112 112 104 101 96 97 96 90 84 80 79 79 79 76 67 65 56
244 214 221 203 181 178 172 174 175 173 166 160 147 147 155 192 197 194 192 174 174 170 168 163 142 139 125 118 109 104 103 108 112 112 108 102 89 92 92 88 82 75 68 71 76 71 59 55 46
240 239 223 231 220 187 192 191 200 186 179 203 152 192 162 171 205 205 191 182 177 176 175 166 153 149 135 124 116 106 101 102 107 108 105 99 89 81 78 72 68 68 66 63 63 56 49 43 42
228 233 229 222 229 222 217 185 199 186 186 188 173 175 212 216 201 197 192 182 188 180 176 169 161 156 140 130 120 112 103 103 106 99 98 99 94 90 79 72 65 55 51 52 51 47 40 30 23
220 229 233 229 225 232 229 223 196 200 197 175 165 157 184 237 243 206 191 182 188 184 183 175 168 166 153 136 126 117 107 104 109 107 108 100 93 85 80 74 71 63 50 40 35 33 25 19 10
214 224 232 231 232 237 234 231 207 200 196 189 164 118 140 244 258 221 201 185 186 191 188 178 174 174 161 142 134 130 118 112 118 117 111 101 94 88 83 77 65 57 44 36 33 32 31 30 30
217 221 227 230 235 229 230 235 216 201 203 176 164 184 202 223 246 227 206 191 192 191 191 183 182 183 168 154 137 135 128 121 120 114 114 107 103 102 91 80 69 53 40 29 27 25 22 23 23
222 221 227 229 234 231 224 238 225 197 186 187 188 206 208 208 220 228 213 194 190 194 193 186 186 185 174 162 145 140 139 136 129 124 124 123 120 109 95 79 69 53 40 26 23 21 20 21 22
219 219 224 229 230 225 225 241 216 195 197 198 192 215 217 207 192 212 214 199 197 196 197 193 191 187 178 173 158 144 146 143 138 134 134 135 134 117 98 78 62 51 43 28 20 18 17 19 24
221 222 224 229 229 229 221 237 195 194 197 202 207 222 236 238 209 210 208 200 199 200 198 199 197 192 184 181 173 157 150 150 148 145 146 146 150 129 102 73 52 44 41 28 22 20 20 23 28
216 221 226 232 235 229 224 223 181 195 207 208 209 239 242 241 238 209 214 208 199 203 202 199 199 197 188 187 182 171 160 156 156 155 154 155 165 152 120 83 50 37 31 24 23 24 29 34 38
218 219 224 229 231 229 225 207 178 196 207 202 203 249 264 260 250 242 214 215 207 204 208 202 199 193 195 190 186 184 176 170 166 163 156 165 175 174 165 117 25 24 23 22 30 33 32 34 32
218 217 218 225 231 232 227 203 184 203 204 199 197 226 351 310 231 207 210 224 212 210 211 207 204 198 195 193 189 188 188 178 173 172 166 175 185 194 190 204 317 349 12 37 31 26 26 27 28
217 220 222 226 229 232 226 199 204 210 203 204 174 145 108 342 265 213 210 213 217 210 213 213 209 204 201 196 195 194 196 191 183 180 182 191 198 204 205 217 313 278 311 33 24 27 30 28 23